[[{"header":{"parameterUnit":"m.s-1","parameterCategory":1,"la1":30.2991,"la2":30.254,"lo1":-89.0895,"lo2":-89.0444,"dy":0.0017,"dx":0.0017,"nx":28,"ny":28,"refTime":"2023-11-16T03:00:00:Z","depth":0,"parameterNumber":2,"parameterNumberName":"U-component_of_WINDS"},"data":[0,0,0,0,0,0,0,0,0,0,0,0,0,0,0,0,0,0,0,0,0,0,0,0,0,0,0,0,0,0,0,0,0,0,0,0,0,0,0,0,0,0,0,0,0,0,0,0,0,0,0,0,0,0,0,0,0,0,-1.9887,-1.9887,0,-1.9922,-1.9922,-1.9923,-1.9856,-1.9854,-1.9852,-1.985,-1.9887,-1.989,-1.9893,0,0,0,0,0,0,0,0,0,0,0,0,0,-1.9761,-1.9763,-1.9886,-1.9887,-1.9887,-1.9922,-1.9923,-1.9923,-1.9857,-1.9854,-1.9851,-1.9849,-1.9886,-1.989,-1.9894,0,0,0,0,0,0,0,0,0,0,0,0,0,-1.9808,-1.9764,-1.9886,-1.9858,-1.9856,-1.9922,-1.9923,-1.9923,-1.9857,-1.9854,-1.985,-1.9847,-1.9885,-1.989,-1.9894,-1.9989,0,0,-1.9908,-1.991,0,0,0,0,0,0,0,0,-1.9805,-1.9813,-1.9862,-1.986,-1.9858,-1.9881,-1.9892,-1.9945,-1.9858,-1.9857,-1.985,-1.9846,-1.9888,-1.9892,-1.9906,-1.9991,-1.9993,-1.9909,-1.9912,-1.9914,-1.9915,0,0,0,0,0,0,0,-1.9802,-1.9811,-1.9901,-1.9863,-1.986,-1.9844,-1.9847,-1.9902,-1.9891,-1.9857,-1.9852,-1.9857,-1.9886,-1.9902,-1.9907,-1.9993,-1.9909,-1.9913,-1.9916,-1.9917,-2.0157,-2.016,0,0,0,0,0,0,-1.9802,-1.9808,-1.9899,-1.9902,-1.9823,-1.9849,-1.9852,-1.9877,-1.989,-1.9889,-1.986,-1.9854,-1.9896,-1.9901,-1.9908,-2.002,-1.9914,-1.9918,-1.992,-2.0153,-2.0158,-2.0161,0,0,0,0,0,0,-1.98,-1.9811,-1.9898,-1.9854,-1.9864,-1.9855,-1.9883,-1.988,-1.9895,-1.9892,-1.989,-1.9878,-1.9893,-1.9901,-1.9969,-2.002,-1.992,-1.9924,-2.0149,-2.0155,-2.0159,-2.0245,0,0,0,0,0,0,-1.9797,-1.9811,-1.9847,-1.9855,-1.9866,-1.9959,-1.9886,-1.9883,-1.9903,-1.9896,-1.9909,-1.9908,-1.9891,-1.9963,-1.9974,-2.0025,-1.9928,-2.0144,-2.0151,-2.0158,-2.0238,-2.0253,-2.0266,0,0,0,0,0,-1.9792,-1.987,-1.9849,-1.9861,-1.9911,-1.9962,-1.9969,-1.9948,-1.9908,-1.9944,-1.9942,-1.9907,-2.0012,-1.997,-1.9982,-2.0035,-2.0141,-2.0149,-2.0157,-2.0231,-2.025,-2.0265,0,0,0,0,0,0,-1.9869,-1.9871,-1.9848,-1.993,-1.9947,-1.9951,-1.9997,-1.9968,-1.9997,-1.9989,-1.9962,-1.9966,-2.0039,-2.0043,-1.9997,-2.0127,-2.007,-2.0081,-2.0122,-2.014,-2.0153,-2.0151,-1.9932,0,0,0,0,0,-1.9896,-1.9937,-1.9936,-2.0009,-2.0018,-2.0006,-2.0028,-2.001,-2.0026,-2.0033,-2.0036,-2.0053,-2.0089,-2.0114,-2.0148,-2.0237,-2.0239,-2.0279,-2.0293,-2.0305,-2.0315,-2.0362,-2.038,-2.0188,-2.0188,-2.0188,0,0,-1.9951,-1.9957,-1.9985,-2.0025,-2.0035,-2.0078,-2.0012,-2.0061,-2.0093,-2.004,-2.0105,-2.0107,-2.0124,-2.0203,-2.0238,-2.0209,-2.0368,-2.0315,-2.0324,-2.0328,-2.0372,-2.039,-2.0407,-2.0193,-2.0192,-2.0192,0,0,-2.0075,-2.0083,-2.0145,-2.0156,-2.0173,-2.0163,-2.0178,-2.0187,-2.0186,-2.025,-2.0211,-2.0248,-2.0312,-2.0326,-2.0341,-2.0467,-2.0437,-2.0479,-2.0552,-2.0598,-2.0614,-2.0627,-2.0672,-2.0689,-2.0488,-2.0489,-2.0489,0,-2.0142,-2.0206,-2.018,-2.0231,-2.025,-2.0202,-2.0265,-2.0277,-2.0304,-2.0318,-2.0285,-2.0363,-2.0371,-2.0453,-2.0483,-2.0497,-2.0513,-2.0478,-2.0613,-2.0626,-2.0639,-2.0682,-2.0699,-2.0494,-2.0493,-2.0493,-2.0492,0,-2.0287,-2.0332,-2.038,-2.0406,-2.0429,-2.0486,-2.0469,-2.0496,-2.0475,-2.047,-2.0535,-2.0542,-2.0577,-2.0594,-2.0575,-2.0672,-2.0654,-2.0618,-2.056,-2.0662,-2.0702,-2.0719,-2.0501,-2.0499,-2.0498,-2.0497,0,0,-2.0463,-2.0473,-2.0491,-2.0502,-2.0515,-2.0549,-2.0603,-2.0636,-2.0659,-2.0678,-2.0723,-2.0777,-2.0743,-2.076,-2.0742,-2.0782,-2.0882,-2.0741,-2.0741,-2.0768,-2.099,-2.1018,-2.1038,-2.0861,-2.0864,-2.0866,-2.0988,0,-2.0586,-2.0679,-2.0656,-2.0748,-2.0789,-2.0743,-2.079,-2.0803,-2.0798,-2.0832,-2.0827,-2.0866,-2.0818,-2.0828,-2.0865,-2.0862,-2.0927,-2.0853,-2.0903,-2.0905,-2.0901,-2.1059,-2.1089,-2.1204,-2.1004,-2.1007,-2.1008,0,-2.0743,-2.0767,-2.0863,-2.0869,-2.0885,-2.0928,-2.0955,-2.0987,-2.1001,-2.0995,-2.1013,-2.0986,-2.1039,-2.0979,-2.1051,-2.1001,-2.102,-2.1021,-2.1025,-2.103,-2.0964,-2.1069,-2.1241,-2.1259,-2.1033,-2.1031,-2.1029,0,-2.0862,-2.0919,-2.0984,-2.0994,-2.1002,-2.1033,-2.1038,-2.1048,-2.1069,-2.1092,-2.1105,-2.1135,-2.1152,-2.1175,-2.1157,-2.1115,-2.1232,-2.117,-2.1229,-2.1229,-2.1257,-2.1256,-2.1436,-2.1267,-2.1267,-2.1267,-2.1266,0,-2.1003,-2.1064,-2.1037,-2.1077,-2.1143,-2.1116,-2.1182,-2.1182,-2.1191,-2.1229,-2.1191,-2.1228,-2.1201,-2.1236,-2.1222,-2.1284,-2.1291,-2.1288,-2.1284,-2.1292,-2.1293,-2.1305,-2.1298,-2.1271,-2.127,-2.1269,-2.1268,0,-2.1149,-2.1134,-2.1201,-2.1202,-2.1204,-2.1253,-2.1254,-2.1291,-2.1282,-2.1331,-2.1341,-2.1329,-2.1367,-2.135,-2.1392,-2.1382,-2.1462,-2.1446,-2.1457,-2.1454,-2.1513,-2.1509,-2.1709,-2.1733,-2.1548,-2.155,-2.1551,0,-2.1241,-2.1286,-2.1292,-2.1315,-2.1322,-2.136,-2.138,-2.1354,-2.1377,-2.1395,-2.1429,-2.1464,-2.1491,-2.1555,-2.1549,-2.158,-2.1566,-2.1634,-2.157,-2.1577,-2.1568,-2.1566,-2.1571,-2.1647,-2.1649,-2.1651,-2.1652,0,-2.1406,-2.1395,-2.1426,-2.1454,-2.1479,-2.15,-2.1518,-2.1538,-2.1513,-2.154,-2.1579,-2.16,-2.1641,-2.1676,-2.1703,-2.1707,-2.1676,-2.1672,-2.1687,-2.1697,-2.1702,-2.1701,-2.1493,-2.1668,-2.1667,-2.1665,-2.1665,-2.1664,-2.1528,-2.1566,-2.1576,-2.1611,-2.1621,-2.1638,-2.1672,-2.1667,-2.1699,-2.173,-2.1712,-2.1757,-2.1768,-2.18,-2.1809,-2.1844,-2.1817,-2.1839,-2.1845,-2.1851,-2.186,-2.1695,-2.1848,-2.1848,-2.1847,-2.1847,-2.1847,0,-2.1692,-2.1695,-2.1728,-2.1753,-2.178,-2.1747,-2.1764,-2.1789,-2.1829,-2.1841,-2.1868,-2.1912,-2.1945,-2.1941,-2.1972,-2.2001,-2.1987,-2.201,-2.2008,-2.201,-2.1881,-2.1865,-2.202,-2.202,-2.202,-2.202,-2.202,-2.202,-2.1781,-2.1843,-2.1833,-2.19,-2.1902,-2.1946,-2.1959,-2.1974,-2.1983,-2.2034,-2.2061,-2.2058,-2.2063,-2.2093,-2.2123,-2.212,-2.2134,-2.2162,-2.2155,-2.2036,-2.2019,-2.2002,-2.1987,-2.2165,-2.2165,-2.228,-2.2281,-2.2282]},{"header":{"parameterUnit":"m.s-1","parameterCategory":1,"la1":30.2991,"la2":30.254,"lo1":-89.0895,"lo2":-89.0444,"dy":0.0017,"dx":0.0017,"nx":28,"ny":28,"refTime":"2023-11-16T03:00:00:Z","depth":0,"parameterNumber":3,"parameterNumberName":"V-component_of_WINDS"},"data":[0,0,0,0,0,0,0,0,0,0,0,0,0,0,0,0,0,0,0,0,0,0,0,0,0,0,0,0,0,0,0,0,0,0,0,0,0,0,0,0,0,0,0,0,0,0,0,0,0,0,0,0,0,0,0,0,0,0,-3.084,-3.084,0,-3.0864,-3.0864,-3.0865,-3.0834,-3.0833,-3.0832,-3.0831,-3.0853,-3.0855,-3.0856,0,0,0,0,0,0,0,0,0,0,0,0,0,-3.0763,-3.0765,-3.084,-3.084,-3.084,-3.0864,-3.0864,-3.0865,-3.0835,-3.0833,-3.0832,-3.0831,-3.0852,-3.0854,-3.0856,0,0,0,0,0,0,0,0,0,0,0,0,0,-3.0793,-3.0765,-3.084,-3.0828,-3.0827,-3.0864,-3.0864,-3.0865,-3.0835,-3.0833,-3.0831,-3.083,-3.0852,-3.0854,-3.0857,-3.0905,0,0,-3.0864,-3.0865,0,0,0,0,0,0,0,0,-3.0791,-3.0796,-3.083,-3.0829,-3.0828,-3.0845,-3.0845,-3.0878,-3.0835,-3.0832,-3.0831,-3.0829,-3.0851,-3.0854,-3.0862,-3.0906,-3.0907,-3.0864,-3.0866,-3.0867,-3.0867,0,0,0,0,0,0,0,-3.0789,-3.0794,-3.0849,-3.083,-3.0829,-3.0821,-3.0823,-3.0852,-3.085,-3.0832,-3.083,-3.0833,-3.0851,-3.086,-3.0862,-3.0907,-3.0864,-3.0866,-3.0868,-3.0869,-3.099,-3.0992,0,0,0,0,0,0,-3.0789,-3.0793,-3.0848,-3.085,-3.0805,-3.0823,-3.0826,-3.0841,-3.085,-3.085,-3.0835,-3.0832,-3.0856,-3.0859,-3.0863,-3.0919,-3.0867,-3.0869,-3.087,-3.0989,-3.0991,-3.0993,0,0,0,0,0,0,-3.0787,-3.0794,-3.0848,-3.0821,-3.0827,-3.0826,-3.0843,-3.0842,-3.0851,-3.0852,-3.0852,-3.0844,-3.0855,-3.0859,-3.0894,-3.0919,-3.087,-3.0872,-3.0986,-3.0989,-3.0992,-3.1032,0,0,0,0,0,0,-3.0785,-3.0794,-3.0813,-3.0822,-3.0829,-3.088,-3.0845,-3.0844,-3.0856,-3.0852,-3.0861,-3.0861,-3.0854,-3.0891,-3.0897,-3.0922,-3.0874,-3.0984,-3.0988,-3.0991,-3.1028,-3.1036,-3.1042,0,0,0,0,0,-3.0783,-3.0823,-3.0814,-3.0821,-3.0853,-3.0882,-3.0885,-3.0878,-3.0858,-3.0877,-3.0877,-3.0861,-3.0916,-3.0895,-3.0901,-3.0927,-3.0983,-3.0987,-3.0991,-3.1025,-3.1034,-3.1042,0,0,0,0,0,0,-3.0816,-3.0824,-3.0814,-3.0859,-3.087,-3.0876,-3.09,-3.0887,-3.0904,-3.0899,-3.0888,-3.089,-3.0928,-3.0931,-3.0907,-3.0974,-3.0946,-3.0951,-3.097,-3.0978,-3.0985,-3.0983,-3.0876,0,0,0,0,0,-3.0829,-3.0853,-3.0858,-3.0896,-3.0903,-3.09,-3.0912,-3.0906,-3.0916,-3.092,-3.0924,-3.0934,-3.0953,-3.0966,-3.0984,-3.1029,-3.103,-3.105,-3.1057,-3.1062,-3.1067,-3.1089,-3.1098,-3.1006,-3.1006,-3.1006,0,0,-3.0855,-3.0862,-3.0878,-3.0903,-3.0911,-3.0935,-3.0904,-3.0931,-3.0948,-3.0924,-3.0957,-3.096,-3.097,-3.1011,-3.1028,-3.1014,-3.1092,-3.1067,-3.1072,-3.1073,-3.1094,-3.1103,-3.1111,-3.1008,-3.1008,-3.1008,0,0,-3.0915,-3.0923,-3.0956,-3.0964,-3.0977,-3.0975,-3.0983,-3.0991,-3.0993,-3.1026,-3.1009,-3.1028,-3.1062,-3.107,-3.1079,-3.1141,-3.1126,-3.1147,-3.1182,-3.1204,-3.1212,-3.1218,-3.1239,-3.1247,-3.1152,-3.1152,-3.1152,0,-3.0945,-3.0981,-3.0974,-3.1002,-3.1013,-3.0993,-3.1025,-3.1034,-3.1051,-3.1059,-3.1043,-3.1085,-3.1091,-3.1132,-3.1147,-3.1155,-3.1163,-3.1146,-3.1211,-3.1218,-3.1224,-3.1244,-3.1252,-3.1154,-3.1154,-3.1154,-3.1154,0,-3.1018,-3.1043,-3.1068,-3.1086,-3.11,-3.113,-3.1125,-3.114,-3.1132,-3.1132,-3.1165,-3.1172,-3.119,-3.12,-3.1192,-3.1239,-3.123,-3.1213,-3.1185,-3.1235,-3.1253,-3.1261,-3.1158,-3.1157,-3.1156,-3.1156,0,0,-3.1099,-3.1112,-3.1121,-3.1129,-3.1141,-3.116,-3.1189,-3.1208,-3.122,-3.1233,-3.1255,-3.1285,-3.1269,-3.1279,-3.1271,-3.1291,-3.1339,-3.1272,-3.1272,-3.1283,-3.1391,-3.1403,-3.1412,-3.133,-3.1331,-3.1332,-3.1389,0,-3.1157,-3.1208,-3.1202,-3.1249,-3.1272,-3.1254,-3.1278,-3.1288,-3.1288,-3.1306,-3.1306,-3.1326,-3.1305,-3.131,-3.1329,-3.1329,-3.136,-3.1325,-3.1349,-3.135,-3.1346,-3.1422,-3.1434,-3.1488,-3.1397,-3.1398,-3.1399,0,-3.1233,-3.1249,-3.1299,-3.1307,-3.1317,-3.1339,-3.1355,-3.1374,-3.1384,-3.1382,-3.1393,-3.1382,-3.1409,-3.1382,-3.1418,-3.1394,-3.1404,-3.1405,-3.1407,-3.1408,-3.1377,-3.1424,-3.1505,-3.1513,-3.1411,-3.141,-3.1409,0,-3.1285,-3.132,-3.1354,-3.1361,-3.1372,-3.1388,-3.1393,-3.1401,-3.1413,-3.1427,-3.1434,-3.1452,-3.1461,-3.1473,-3.1467,-3.1447,-3.1504,-3.1476,-3.1503,-3.1503,-3.1515,-3.1514,-3.1598,-3.1523,-3.1523,-3.1523,-3.1522,0,-3.1351,-3.1382,-3.1378,-3.1398,-3.1432,-3.1425,-3.1458,-3.1461,-3.1468,-3.1488,-3.1474,-3.1493,-3.1484,-3.1502,-3.1497,-3.1527,-3.1532,-3.153,-3.1529,-3.1531,-3.1531,-3.1536,-3.1532,-3.1525,-3.1524,-3.1524,-3.1524,0,-3.1415,-3.1414,-3.1449,-3.1457,-3.146,-3.1484,-3.149,-3.1509,-3.1508,-3.1534,-3.1539,-3.1538,-3.1558,-3.1553,-3.1576,-3.1572,-3.161,-3.1604,-3.1607,-3.1605,-3.1632,-3.1629,-3.1721,-3.1733,-3.1651,-3.1652,-3.1653,0,-3.1457,-3.148,-3.1491,-3.1504,-3.151,-3.1531,-3.1543,-3.1536,-3.1549,-3.1562,-3.1579,-3.1599,-3.1614,-3.1647,-3.1647,-3.1664,-3.1657,-3.1689,-3.166,-3.1661,-3.1656,-3.1655,-3.1656,-3.1694,-3.1695,-3.1696,-3.1696,0,-3.1531,-3.1529,-3.1547,-3.1565,-3.158,-3.1594,-3.1606,-3.1617,-3.1611,-3.1626,-3.1647,-3.1659,-3.1682,-3.1701,-3.1716,-3.172,-3.1707,-3.1706,-3.1712,-3.1715,-3.1715,-3.1714,-3.1622,-3.1703,-3.1702,-3.1702,-3.1702,-3.1701,-3.1584,-3.1604,-3.1614,-3.1635,-3.1643,-3.1655,-3.1673,-3.1675,-3.1692,-3.1711,-3.1706,-3.173,-3.1738,-3.1758,-3.1763,-3.1781,-3.1769,-3.178,-3.1782,-3.1784,-3.1787,-3.1713,-3.1784,-3.1784,-3.1784,-3.1784,-3.1783,0,-3.1656,-3.1662,-3.1681,-3.1699,-3.1715,-3.1702,-3.1715,-3.1729,-3.175,-3.176,-3.1775,-3.1799,-3.1817,-3.1819,-3.1836,-3.185,-3.1844,-3.1854,-3.1853,-3.1854,-3.1797,-3.1789,-3.1859,-3.1859,-3.1859,-3.1859,-3.1859,-3.1859,-3.1695,-3.1728,-3.1727,-3.1763,-3.1768,-3.1792,-3.18,-3.181,-3.1818,-3.1846,-3.1861,-3.1863,-3.1869,-3.1886,-3.1902,-3.1902,-3.1908,-3.1921,-3.1918,-3.1865,-3.1858,-3.1851,-3.1843,-3.1922,-3.1922,-3.1973,-3.1973,-3.1973]}]]